| time (UTC) | temp C | wind direction | speed KPH | gust KPH | rain 1hr cm | rain 24hr cm | rain mn cm | humidity % | barometer mb |
| 20260506115003 | 13 | 267 | 0.0 | 4.8 | 0.00 | 0.03 | 0.00 | 84 | 1019.1 |
| 20260506114503 | 13 | 265 | 0.0 | 4.8 | 0.00 | 0.03 | 0.00 | 84 | 1019.1 |
| 20260506114003 | 13 | 262 | 0.0 | 4.8 | 0.00 | 0.03 | 0.00 | 84 | 1019.0 |
| 20260506113717 | 13 | 261 | 0.0 | 4.8 | 0.00 | 0.03 | 0.00 | 84 | 1019.1 |
| 20260506113003 | 13 | 300 | 0.0 | 3.2 | 0.00 | 0.03 | 0.00 | 83 | 1019.0 |
| 20260506112503 | 13 | 318 | 0.0 | 4.8 | 0.00 | 0.03 | 0.00 | 83 | 1019.0 |
| 20260506112003 | 13 | 304 | 0.0 | 4.8 | 0.00 | 0.03 | 0.00 | 83 | 1018.9 |
| 20260506111503 | 13 | 272 | 0.0 | 4.8 | 0.00 | 0.03 | 0.00 | 84 | 1018.9 |
| 20260506111218 | 13 | 272 | 0.0 | 4.8 | 0.00 | 0.03 | 0.00 | 84 | 1018.9 |
| 20260506110503 | 13 | 261 | 0.0 | 1.6 | 0.00 | 0.03 | 0.00 | 84 | 1018.8 |
| 20260506110003 | 13 | 272 | 0.0 | 3.2 | 0.00 | 0.03 | 0.00 | 85 | 1018.8 |
| 20260506105503 | 13 | 304 | 1.6 | 6.4 | 0.00 | 0.03 | 0.00 | 85 | 1018.8 |
| 20260506105218 | 13 | 312 | 1.6 | 6.4 | 0.00 | 0.03 | 0.00 | 85 | 1018.8 |
| 20260506104503 | 13 | 309 | 0.0 | 3.2 | 0.00 | 0.03 | 0.00 | 86 | 1018.8 |
| 20260506104003 | 13 | 269 | 1.6 | 6.4 | 0.00 | 0.03 | 0.00 | 86 | 1018.8 |
| 20260506103503 | 13 | 263 | 1.6 | 6.4 | 0.00 | 0.03 | 0.00 | 86 | 1018.8 |
| 20260506103003 | 13 | 256 | 0.0 | 3.2 | 0.00 | 0.03 | 0.00 | 87 | 1018.7 |
| 20260506102503 | 13 | 285 | 0.0 | 3.2 | 0.00 | 0.03 | 0.00 | 87 | 1018.7 |
| 20260506102003 | 13 | 342 | 0.0 | 3.2 | 0.00 | 0.03 | 0.00 | 87 | 1018.7 |
| 20260506101503 | 13 | 283 | 0.0 | 1.6 | 0.00 | 0.03 | 0.00 | 86 | 1018.6 |
| 20260506101218 | 13 | 266 | 0.0 | 1.6 | 0.00 | 0.03 | 0.00 | 86 | 1018.6 |
| 20260506100503 | 13 | 264 | 0.0 | 1.6 | 0.00 | 0.03 | 0.00 | 86 | 1018.6 |
| 20260506100003 | 12 | 269 | 0.0 | 3.2 | 0.00 | 0.03 | 0.00 | 86 | 1018.7 |
| 20260506095503 | 12 | 276 | 0.0 | 3.2 | 0.00 | 0.03 | 0.00 | 86 | 1018.7 |
| 20260506095218 | 12 | 321 | 0.0 | 1.6 | 0.00 | 0.03 | 0.00 | 86 | 1018.7 |
| 20260506094503 | 13 | 329 | 0.0 | 8.0 | 0.00 | 0.03 | 0.00 | 86 | 1018.8 |
| 20260506094003 | 13 | 329 | 0.0 | 8.0 | 0.00 | 0.03 | 0.00 | 86 | 1018.8 |
| 20260506093503 | 13 | 329 | 0.0 | 3.2 | 0.00 | 0.03 | 0.00 | 86 | 1018.8 |
| 20260506093003 | 13 | 299 | 0.0 | 3.2 | 0.00 | 0.03 | 0.00 | 85 | 1018.8 |
| 20260506092503 | 13 | 277 | 0.0 | 1.6 | 0.00 | 0.05 | 0.00 | 85 | 1018.7 |
| 20260506092003 | 13 | 273 | 0.0 | 1.6 | 0.00 | 0.05 | 0.00 | 85 | 1018.6 |
| 20260506091716 | 13 | 262 | 0.0 | 3.2 | 0.00 | 0.05 | 0.00 | 85 | 1018.6 |
| 20260506091003 | 13 | 259 | 0.0 | 3.2 | 0.00 | 0.05 | 0.00 | 84 | 1018.5 |
| 20260506090503 | 13 | 262 | 0.0 | 3.2 | 0.00 | 0.08 | 0.00 | 84 | 1018.7 |
| 20260506090003 | 13 | 269 | 0.0 | 1.6 | 0.00 | 0.08 | 0.00 | 84 | 1018.6 |
| 20260506085503 | 13 | 269 | 0.0 | 1.6 | 0.00 | 0.08 | 0.00 | 84 | 1018.7 |
| 20260506085003 | 13 | 269 | 0.0 | 1.6 | 0.00 | 0.08 | 0.00 | 83 | 1018.6 |
| 20260506084503 | 13 | 299 | 0.0 | 3.2 | 0.00 | 0.08 | 0.00 | 83 | 1018.7 |
| 20260506084003 | 13 | 299 | 0.0 | 3.2 | 0.00 | 0.08 | 0.00 | 83 | 1018.7 |
| 20260506083503 | 13 | 263 | 0.0 | 6.4 | 0.00 | 0.08 | 0.00 | 84 | 1018.7 |
| 20260506083003 | 13 | 268 | 0.0 | 6.4 | 0.00 | 0.08 | 0.00 | 84 | 1018.7 |
| 20260506082503 | 13 | 290 | 0.0 | 3.2 | 0.00 | 0.08 | 0.00 | 84 | 1018.7 |
| 20260506082003 | 13 | 305 | 0.0 | 3.2 | 0.00 | 0.08 | 0.00 | 84 | 1018.7 |
| 20260506081503 | 13 | 264 | 0.0 | 3.2 | 0.00 | 0.10 | 0.00 | 84 | 1018.7 |
| 20260506081003 | 13 | 259 | 0.0 | 3.2 | 0.00 | 0.10 | 0.00 | 84 | 1018.7 |
| 20260506080503 | 13 | 246 | 0.0 | 3.2 | 0.00 | 0.13 | 0.00 | 84 | 1018.8 |
| 20260506073503 | 13 | 269 | 0.0 | 4.8 | 0.00 | 0.20 | 0.00 | 85 | 1018.4 |
| 20260506073003 | 13 | 274 | 0.0 | 3.2 | 0.00 | 0.20 | 0.00 | 85 | 1018.4 |
| 20260506072717 | 13 | 278 | 0.0 | 3.2 | 0.00 | 0.20 | 0.00 | 85 | 1018.4 |
| 20260506072003 | 13 | 260 | 0.0 | 3.2 | 0.00 | 0.20 | 0.00 | 86 | 1018.4 |
| 20260506071715 | 13 | 261 | 1.6 | 4.8 | 0.00 | 0.23 | 0.00 | 86 | 1018.3 |
| 20260506071003 | 13 | 270 | 0.0 | 4.8 | 0.00 | 0.23 | 0.00 | 87 | 1018.2 |
| 20260506070718 | 13 | 278 | 0.0 | 3.2 | 0.00 | 0.23 | 0.00 | 87 | 1018.3 |
| 20260506070219 | 13 | 276 | 1.6 | 4.8 | 0.00 | 0.23 | 0.00 | 87 | 1018.3 |
| 20260506062503 | 13 | 251 | 0.0 | 3.2 | 0.00 | 0.23 | 0.23 | 86 | 1017.8 |
| 20260506062218 | 13 | 271 | 0.0 | 3.2 | 0.00 | 0.23 | 0.23 | 86 | 1017.8 |
| 20260506061503 | 13 | 273 | 0.0 | 3.2 | 0.00 | 0.25 | 0.23 | 86 | 1017.7 |
| 20260506061216 | 13 | 273 | 0.0 | 3.2 | 0.00 | 0.25 | 0.23 | 86 | 1017.7 |
| 20260506060503 | 13 | 267 | 0.0 | 3.2 | 0.00 | 0.25 | 0.23 | 86 | 1017.6 |
| 20260506051216 | 13 | 269 | 3.2 | 8.0 | 0.00 | 0.33 | 0.23 | 87 | 1017.4 |
| 20260506050503 | 13 | 269 | 1.6 | 8.0 | 0.00 | 0.33 | 0.23 | 87 | 1017.5 |
| 20260506050218 | 13 | 266 | 1.6 | 6.4 | 0.00 | 0.33 | 0.23 | 87 | 1017.5 |
| 20260506045003 | 13 | 265 | 1.6 | 8.0 | 0.00 | 0.36 | 0.23 | 88 | 1017.2 |
| 20260506044716 | 13 | 265 | 1.6 | 6.4 | 0.00 | 0.36 | 0.23 | 88 | 1017.3 |
| 20260506044218 | 13 | 262 | 0.0 | 3.2 | 0.00 | 0.38 | 0.23 | 88 | 1017.2 |
| 20260506043503 | 13 | 288 | 1.6 | 8.0 | 0.00 | 0.38 | 0.23 | 88 | 1017.2 |
| 20260506043003 | 13 | 269 | 0.0 | 8.0 | 0.00 | 0.38 | 0.23 | 87 | 1017.2 |
| 20260506042503 | 13 | 262 | 0.0 | 6.4 | 0.00 | 0.38 | 0.23 | 87 | 1017.2 |
| 20260506042003 | 13 | 259 | 1.6 | 6.4 | 0.00 | 0.38 | 0.23 | 87 | 1017.1 |
| 20260506041718 | 13 | 259 | 1.6 | 6.4 | 0.00 | 0.38 | 0.23 | 87 | 1017.2 |
| 20260506041003 | 13 | 249 | 1.6 | 6.4 | 0.00 | 0.38 | 0.23 | 87 | 1017.0 |
| 20260506040503 | 13 | 233 | 1.6 | 4.8 | 0.00 | 0.38 | 0.23 | 87 | 1016.9 |
| 20260506040003 | 13 | 263 | 1.6 | 8.0 | 0.00 | 0.38 | 0.23 | 86 | 1016.8 |
| 20260506035503 | 13 | 266 | 3.2 | 9.7 | 0.00 | 0.38 | 0.23 | 86 | 1016.7 |
| 20260506035219 | 13 | 265 | 3.2 | 9.7 | 0.00 | 0.38 | 0.23 | 86 | 1016.7 |
| 20260506034503 | 13 | 253 | 1.6 | 8.0 | 0.00 | 0.38 | 0.23 | 85 | 1016.6 |
| 20260506034003 | 13 | 272 | 1.6 | 8.0 | 0.00 | 0.38 | 0.23 | 85 | 1016.6 |
| 20260506033503 | 13 | 281 | 1.6 | 8.0 | 0.00 | 0.38 | 0.23 | 85 | 1016.4 |
| 20260506033003 | 13 | 274 | 1.6 | 9.7 | 0.00 | 0.38 | 0.23 | 85 | 1016.4 |
| 20260506032503 | 13 | 273 | 3.2 | 11.3 | 0.00 | 0.38 | 0.23 | 85 | 1016.4 |
| 20260506032003 | 14 | 267 | 3.2 | 11.3 | 0.00 | 0.38 | 0.23 | 84 | 1016.3 |
| 20260506031718 | 14 | 263 | 3.2 | 11.3 | 0.00 | 0.38 | 0.23 | 84 | 1016.3 |
| 20260506031219 | 14 | 258 | 3.2 | 9.7 | 0.00 | 0.38 | 0.23 | 84 | 1016.3 |
| 20260506030503 | 14 | 265 | 3.2 | 9.7 | 0.00 | 0.38 | 0.23 | 83 | 1016.1 |
| 20260506030217 | 14 | 263 | 3.2 | 12.9 | 0.00 | 0.38 | 0.23 | 83 | 1016.1 |
| 20260506025503 | 14 | 262 | 3.2 | 12.9 | 0.00 | 0.38 | 0.23 | 83 | 1016.0 |
| 20260506025003 | 14 | 272 | 3.2 | 11.3 | 0.00 | 0.38 | 0.23 | 83 | 1016.0 |
| 20260506024503 | 14 | 270 | 4.8 | 12.9 | 0.00 | 0.38 | 0.23 | 83 | 1016.0 |
| 20260506024003 | 14 | 267 | 3.2 | 12.9 | 0.00 | 0.38 | 0.23 | 83 | 1016.1 |
| 20260506023503 | 14 | 271 | 3.2 | 11.3 | 0.00 | 0.38 | 0.23 | 83 | 1016.0 |
| 20260506023003 | 14 | 269 | 4.8 | 14.5 | 0.00 | 0.38 | 0.23 | 82 | 1015.9 |
| 20260506022503 | 15 | 259 | 3.2 | 14.5 | 0.00 | 0.38 | 0.23 | 81 | 1015.8 |
| 20260506022217 | 15 | 267 | 3.2 | 9.7 | 0.00 | 0.38 | 0.23 | 81 | 1015.8 |
| 20260506021503 | 15 | 260 | 3.2 | 12.9 | 0.00 | 0.38 | 0.23 | 81 | 1015.5 |
| 20260506021003 | 15 | 259 | 3.2 | 12.9 | 0.00 | 0.38 | 0.23 | 81 | 1015.4 |
| 20260506020503 | 15 | 270 | 3.2 | 16.1 | 0.00 | 0.38 | 0.23 | 80 | 1015.5 |
| 20260506020003 | 15 | 272 | 4.8 | 17.7 | 0.00 | 0.38 | 0.23 | 79 | 1015.5 |
| 20260506015503 | 15 | 274 | 4.8 | 17.7 | 0.00 | 0.38 | 0.23 | 79 | 1015.4 |
| 20260506015003 | 16 | 288 | 4.8 | 14.5 | 0.00 | 0.38 | 0.23 | 77 | 1015.4 |
| 20260506014503 | 16 | 293 | 3.2 | 9.7 | 0.00 | 0.38 | 0.23 | 77 | 1015.4 |
| 20260506014003 | 16 | 270 | 4.8 | 9.7 | 0.00 | 0.38 | 0.23 | 76 | 1015.5 |
| 20260506013717 | 16 | 269 | 4.8 | 11.3 | 0.00 | 0.38 | 0.23 | 76 | 1015.4 |
| 20260506013003 | 16 | 262 | 3.2 | 12.9 | 0.00 | 0.38 | 0.23 | 75 | 1015.5 |
| 20260506012503 | 17 | 258 | 3.2 | 14.5 | 0.00 | 0.38 | 0.23 | 74 | 1015.5 |
| 20260506012003 | 16 | 268 | 4.8 | 14.5 | 0.00 | 0.38 | 0.23 | 74 | 1015.6 |
| 20260506011503 | 17 | 264 | 4.8 | 14.5 | 0.00 | 0.38 | 0.23 | 74 | 1015.5 |
| 20260506011003 | 16 | 268 | 4.8 | 16.1 | 0.00 | 0.38 | 0.23 | 74 | 1015.5 |
| 20260506010503 | 16 | 281 | 4.8 | 16.1 | 0.00 | 0.38 | 0.23 | 74 | 1015.5 |
| 20260506010003 | 17 | 277 | 1.6 | 11.3 | 0.00 | 0.38 | 0.23 | 72 | 1015.5 |
| 20260506005717 | 17 | 268 | 1.6 | 11.3 | 0.00 | 0.38 | 0.23 | 72 | 1015.6 |
| 20260506005003 | 16 | 269 | 4.8 | 14.5 | 0.00 | 0.38 | 0.23 | 75 | 1015.4 |
| 20260506004504 | 16 | 264 | 4.8 | 14.5 | 0.00 | 0.38 | 0.23 | 74 | 1015.5 |
| 20260506004003 | 16 | 259 | 6.4 | 19.3 | 0.00 | 0.38 | 0.23 | 75 | 1015.4 |
| 20260506003503 | 16 | 267 | 8.0 | 19.3 | 0.00 | 0.38 | 0.23 | 76 | 1015.4 |
| 20260506003003 | 16 | 271 | 6.4 | 17.7 | 0.00 | 0.38 | 0.23 | 75 | 1015.4 |
| 20260506002503 | 16 | 269 | 6.4 | 16.1 | 0.00 | 0.38 | 0.23 | 73 | 1015.3 |
| 20260506002003 | 16 | 268 | 3.2 | 16.1 | 0.00 | 0.38 | 0.23 | 73 | 1015.2 |
| 20260506001503 | 16 | 270 | 3.2 | 16.1 | 0.00 | 0.38 | 0.23 | 75 | 1015.2 |
| 20260506001003 | 16 | 279 | 3.2 | 11.3 | 0.00 | 0.38 | 0.23 | 74 | 1015.2 |
| 20260506000503 | 16 | 270 | 3.2 | 12.9 | 0.00 | 0.38 | 0.23 | 74 | 1015.2 |
| 20260506000003 | 16 | 244 | 4.8 | 14.5 | 0.00 | 0.38 | 0.23 | 75 | 1015.2 |
| 20260505235717 | 16 | 260 | 4.8 | 14.5 | 0.00 | 0.38 | 0.23 | 75 | 1015.2 |
| 20260505235003 | 16 | 277 | 4.8 | 16.1 | 0.00 | 0.38 | 0.23 | 76 | 1015.2 |
| 20260505234503 | 16 | 280 | 4.8 | 19.3 | 0.00 | 0.38 | 0.23 | 76 | 1015.1 |
| 20260505234216 | 16 | 272 | 4.8 | 19.3 | 0.00 | 0.38 | 0.23 | 76 | 1015.2 |
| 20260505233503 | 16 | 265 | 4.8 | 14.5 | 0.00 | 0.38 | 0.23 | 76 | 1015.3 |
| 20260505233003 | 16 | 270 | 4.8 | 11.3 | 0.00 | 0.38 | 0.23 | 75 | 1015.1 |
| 20260505232503 | 16 | 273 | 4.8 | 16.1 | 0.00 | 0.38 | 0.23 | 75 | 1015.2 |
| 20260505232003 | 17 | 269 | 4.8 | 16.1 | 0.00 | 0.38 | 0.23 | 72 | 1015.3 |
| 20260505231503 | 17 | 265 | 4.8 | 17.7 | 0.00 | 0.38 | 0.23 | 75 | 1015.2 |
| 20260505231003 | 17 | 265 | 4.8 | 17.7 | 0.00 | 0.38 | 0.23 | 74 | 1015.2 |
| 20260505230503 | 17 | 271 | 4.8 | 14.5 | 0.00 | 0.38 | 0.23 | 74 | 1015.2 |
| 20260505230215 | 17 | 273 | 6.4 | 17.7 | 0.00 | 0.38 | 0.23 | 75 | 1015.2 |
| 20260505225503 | 17 | 270 | 8.0 | 19.3 | 0.00 | 0.38 | 0.23 | 74 | 1015.2 |
| 20260505225003 | 17 | 268 | 6.4 | 19.3 | 0.00 | 0.38 | 0.23 | 74 | 1015.1 |
| 20260505224503 | 17 | 271 | 4.8 | 17.7 | 0.00 | 0.38 | 0.23 | 73 | 1015.2 |
| 20260505224003 | 17 | 267 | 6.4 | 17.7 | 0.00 | 0.38 | 0.23 | 74 | 1015.2 |
| 20260505223503 | 17 | 254 | 4.8 | 17.7 | 0.00 | 0.38 | 0.23 | 74 | 1015.1 |
| 20260505223003 | 17 | 254 | 3.2 | 11.3 | 0.00 | 0.38 | 0.23 | 75 | 1015.2 |
| 20260505222503 | 16 | 263 | 4.8 | 19.3 | 0.00 | 0.38 | 0.23 | 77 | 1015.2 |
| 20260505222003 | 16 | 267 | 6.4 | 19.3 | 0.00 | 0.38 | 0.23 | 77 | 1015.3 |
| 20260505221503 | 16 | 264 | 8.0 | 19.3 | 0.00 | 0.38 | 0.23 | 78 | 1015.1 |
| 20260505221003 | 16 | 265 | 6.4 | 19.3 | 0.00 | 0.38 | 0.23 | 78 | 1015.3 |
| 20260505220503 | 16 | 269 | 4.8 | 16.1 | 0.00 | 0.38 | 0.23 | 79 | 1015.3 |
| 20260505220003 | 16 | 276 | 4.8 | 16.1 | 0.00 | 0.38 | 0.23 | 78 | 1015.5 |
| 20260505215503 | 16 | 280 | 4.8 | 14.5 | 0.00 | 0.38 | 0.23 | 79 | 1015.4 |
| 20260505215003 | 16 | 271 | 4.8 | 19.3 | 0.00 | 0.38 | 0.23 | 80 | 1015.4 |
| 20260505214503 | 16 | 270 | 6.4 | 19.3 | 0.00 | 0.38 | 0.23 | 78 | 1015.4 |
| 20260505214003 | 16 | 271 | 6.4 | 17.7 | 0.00 | 0.38 | 0.23 | 78 | 1015.5 |
| 20260505213503 | 16 | 275 | 6.4 | 17.7 | 0.00 | 0.38 | 0.23 | 78 | 1015.5 |
| 20260505213003 | 16 | 275 | 6.4 | 12.9 | 0.00 | 0.38 | 0.23 | 78 | 1015.6 |
| 20260505212503 | 16 | 273 | 6.4 | 12.9 | 0.00 | 0.38 | 0.23 | 77 | 1015.6 |
| 20260505212003 | 16 | 272 | 6.4 | 16.1 | 0.00 | 0.38 | 0.23 | 78 | 1015.7 |
| 20260505211503 | 16 | 267 | 4.8 | 16.1 | 0.00 | 0.38 | 0.23 | 77 | 1015.7 |
| 20260505211003 | 16 | 269 | 4.8 | 16.1 | 0.00 | 0.38 | 0.23 | 77 | 1015.5 |
| 20260505210503 | 16 | 271 | 6.4 | 17.7 | 0.00 | 0.38 | 0.23 | 77 | 1015.7 |
| 20260505210003 | 16 | 275 | 6.4 | 19.3 | 0.00 | 0.38 | 0.23 | 77 | 1015.7 |
| 20260505205503 | 16 | 274 | 6.4 | 19.3 | 0.00 | 0.38 | 0.23 | 76 | 1015.6 |
| 20260505205003 | 16 | 273 | 4.8 | 17.7 | 0.00 | 0.38 | 0.23 | 75 | 1015.6 |
| 20260505204503 | 16 | 273 | 4.8 | 17.7 | 0.00 | 0.38 | 0.23 | 75 | 1015.6 |
| 20260505204003 | 16 | 270 | 6.4 | 16.1 | 0.00 | 0.38 | 0.23 | 74 | 1015.6 |
| 20260505203503 | 16 | 270 | 6.4 | 17.7 | 0.00 | 0.38 | 0.23 | 75 | 1015.7 |
| 20260505203003 | 16 | 273 | 4.8 | 17.7 | 0.00 | 0.38 | 0.23 | 73 | 1015.6 |
| 20260505202717 | 16 | 279 | 4.8 | 17.7 | 0.00 | 0.38 | 0.23 | 74 | 1015.6 |
| 20260505202003 | 16 | 276 | 6.4 | 19.3 | 0.00 | 0.38 | 0.23 | 74 | 1015.6 |
| 20260505201503 | 17 | 302 | 4.8 | 19.3 | 0.00 | 0.38 | 0.23 | 72 | 1015.7 |
| 20260505201003 | 17 | 306 | 4.8 | 16.1 | 0.00 | 0.38 | 0.23 | 72 | 1015.5 |
| 20260505200503 | 17 | 278 | 6.4 | 22.5 | 0.00 | 0.38 | 0.23 | 73 | 1015.6 |
| 20260505200003 | 17 | 272 | 6.4 | 22.5 | 0.00 | 0.38 | 0.23 | 73 | 1015.6 |
| 20260505195719 | 17 | 267 | 4.8 | 22.5 | 0.00 | 0.38 | 0.23 | 73 | 1015.7 |
| 20260505195216 | 16 | 279 | 4.8 | 16.1 | 0.00 | 0.38 | 0.23 | 75 | 1015.7 |
| 20260505194503 | 16 | 279 | 4.8 | 12.9 | 0.00 | 0.38 | 0.23 | 75 | 1015.8 |
| 20260505194003 | 16 | 270 | 4.8 | 12.9 | 0.00 | 0.38 | 0.23 | 75 | 1015.9 |
| 20260505193503 | 16 | 263 | 4.8 | 12.9 | 0.00 | 0.38 | 0.23 | 76 | 1015.8 |
| 20260505193003 | 16 | 262 | 4.8 | 12.9 | 0.00 | 0.38 | 0.23 | 74 | 1015.9 |
| 20260505192717 | 16 | 264 | 3.2 | 11.3 | 0.00 | 0.38 | 0.23 | 75 | 1015.8 |
| 20260505192218 | 16 | 271 | 3.2 | 11.3 | 0.00 | 0.38 | 0.23 | 75 | 1015.9 |
| 20260505191503 | 16 | 271 | 3.2 | 14.5 | 0.00 | 0.38 | 0.23 | 77 | 1015.9 |
| 20260505191003 | 15 | 275 | 4.8 | 14.5 | 0.00 | 0.38 | 0.23 | 77 | 1015.9 |
| 20260505190503 | 15 | 276 | 3.2 | 14.5 | 0.00 | 0.38 | 0.23 | 78 | 1015.7 |
| 20260505190003 | 15 | 272 | 4.8 | 16.1 | 0.00 | 0.38 | 0.23 | 80 | 1015.6 |
| 20260505185503 | 15 | 270 | 6.4 | 16.1 | 0.00 | 0.38 | 0.23 | 81 | 1015.7 |
| 20260505185003 | 15 | 266 | 4.8 | 14.5 | 0.00 | 0.38 | 0.23 | 80 | 1015.7 |
| 20260505184503 | 15 | 269 | 4.8 | 19.3 | 0.00 | 0.38 | 0.23 | 79 | 1015.7 |
| 20260505184003 | 15 | 267 | 6.4 | 19.3 | 0.00 | 0.38 | 0.23 | 80 | 1015.5 |
| 20260505183503 | 15 | 267 | 6.4 | 16.1 | 0.00 | 0.38 | 0.23 | 81 | 1015.6 |
| 20260505183003 | 15 | 268 | 4.8 | 16.1 | 0.00 | 0.38 | 0.23 | 82 | 1015.8 |
| 20260505182503 | 15 | 269 | 3.2 | 12.9 | 0.00 | 0.38 | 0.23 | 82 | 1015.7 |
| 20260505182218 | 15 | 273 | 3.2 | 12.9 | 0.00 | 0.38 | 0.23 | 81 | 1015.8 |
| 20260505181503 | 15 | 273 | 3.2 | 16.1 | 0.00 | 0.38 | 0.23 | 81 | 1015.7 |
| 20260505181003 | 15 | 272 | 3.2 | 16.1 | 0.00 | 0.38 | 0.23 | 82 | 1015.8 |
| 20260505180503 | 15 | 265 | 3.2 | 12.9 | 0.00 | 0.38 | 0.23 | 83 | 1015.7 |
| 20260505180003 | 15 | 263 | 4.8 | 12.9 | 0.00 | 0.38 | 0.23 | 83 | 1015.5 |
| 20260505175503 | 15 | 270 | 4.8 | 12.9 | 0.00 | 0.38 | 0.23 | 84 | 1015.5 |
| 20260505175003 | 15 | 279 | 4.8 | 11.3 | 0.00 | 0.38 | 0.23 | 85 | 1015.4 |
| 20260505174503 | 14 | 271 | 3.2 | 11.3 | 0.00 | 0.38 | 0.23 | 85 | 1015.3 |
| 20260505174003 | 14 | 265 | 4.8 | 12.9 | 0.00 | 0.38 | 0.23 | 85 | 1015.4 |
| 20260505173503 | 14 | 272 | 3.2 | 12.9 | 0.00 | 0.38 | 0.23 | 86 | 1015.4 |
| 20260505173003 | 14 | 273 | 3.2 | 9.7 | 0.00 | 0.38 | 0.23 | 86 | 1015.4 |
| 20260505172503 | 14 | 283 | 3.2 | 11.3 | 0.00 | 0.38 | 0.23 | 87 | 1015.3 |
| 20260505172003 | 14 | 292 | 3.2 | 11.3 | 0.00 | 0.38 | 0.23 | 87 | 1015.4 |
| 20260505171718 | 13 | 278 | 3.2 | 11.3 | 0.00 | 0.38 | 0.23 | 87 | 1015.3 |
| 20260505171003 | 13 | 264 | 3.2 | 11.3 | 0.00 | 0.38 | 0.23 | 87 | 1015.4 |
| 20260505170503 | 13 | 279 | 3.2 | 11.3 | 0.00 | 0.38 | 0.23 | 87 | 1015.2 |
| 20260505170003 | 13 | 277 | 4.8 | 11.3 | 0.00 | 0.38 | 0.23 | 88 | 1015.3 |
| 20260505165503 | 13 | 277 | 4.8 | 12.9 | 0.00 | 0.38 | 0.23 | 88 | 1015.3 |
| 20260505165219 | 13 | 278 | 4.8 | 12.9 | 0.00 | 0.38 | 0.23 | 88 | 1015.4 |
| 20260505164503 | 13 | 263 | 3.2 | 9.7 | 0.00 | 0.38 | 0.23 | 89 | 1015.3 |
| 20260505164003 | 13 | 274 | 1.6 | 9.7 | 0.00 | 0.38 | 0.23 | 89 | 1015.3 |
| 20260505163503 | 13 | 278 | 3.2 | 8.0 | 0.00 | 0.38 | 0.23 | 89 | 1015.3 |
| 20260505163003 | 13 | 271 | 3.2 | 8.0 | 0.00 | 0.38 | 0.23 | 89 | 1015.3 |
| 20260505162503 | 13 | 275 | 1.6 | 6.4 | 0.00 | 0.38 | 0.23 | 89 | 1015.4 |
| 20260505162003 | 13 | 289 | 1.6 | 4.8 | 0.00 | 0.38 | 0.23 | 89 | 1015.3 |
| 20260505161503 | 13 | 268 | 1.6 | 6.4 | 0.00 | 0.38 | 0.23 | 90 | 1015.2 |
| 20260505161003 | 13 | 266 | 1.6 | 8.0 | 0.00 | 0.38 | 0.23 | 90 | 1015.2 |
| 20260505160503 | 13 | 269 | 1.6 | 8.0 | 0.03 | 0.38 | 0.23 | 90 | 1015.0 |
| 20260505153003 | 12 | 264 | 1.6 | 6.4 | 0.03 | 0.38 | 0.23 | 91 | 1014.9 |
| 20260505152503 | 12 | 266 | 1.6 | 11.3 | 0.03 | 0.38 | 0.23 | 90 | 1014.9 |
| 20260505152217 | 12 | 285 | 1.6 | 11.3 | 0.03 | 0.38 | 0.23 | 90 | 1014.8 |
| 20260505151503 | 12 | 279 | 3.2 | 8.0 | 0.03 | 0.38 | 0.23 | 90 | 1014.9 |
| 20260505151003 | 12 | 270 | 3.2 | 9.7 | 0.03 | 0.38 | 0.23 | 90 | 1014.8 |
| 20260505150503 | 12 | 267 | 3.2 | 9.7 | 0.00 | 0.36 | 0.20 | 89 | 1014.9 |
| 20260505140503 | 12 | 269 | 1.6 | 6.4 | 0.00 | 0.36 | 0.20 | 89 | 1014.4 |
| 20260505125003 | 12 | 277 | 0.0 | 4.8 | 0.00 | 0.36 | 0.20 | 88 | 1014.2 |
| 20260505124503 | 12 | 292 | 0.0 | 4.8 | 0.00 | 0.36 | 0.20 | 88 | 1014.2 |
| 20260505124003 | 12 | 300 | 0.0 | 4.8 | 0.00 | 0.36 | 0.20 | 88 | 1014.2 |
| 20260505123717 | 12 | 271 | 1.6 | 4.8 | 0.00 | 0.36 | 0.20 | 88 | 1014.1 |
| 20260505123003 | 12 | 266 | 1.6 | 6.4 | 0.00 | 0.36 | 0.20 | 88 | 1014.0 |
| 20260505122503 | 12 | 280 | 1.6 | 6.4 | 0.00 | 0.36 | 0.20 | 88 | 1014.1 |
| 20260505122004 | 12 | 321 | 1.6 | 4.8 | 0.00 | 0.36 | 0.20 | 88 | 1014.1 |
| 20260505121503 | 12 | 319 | 1.6 | 4.8 | 0.00 | 0.36 | 0.20 | 88 | 1014.1 |
| 20260505121217 | 12 | 324 | 1.6 | 8.0 | 0.00 | 0.36 | 0.20 | 88 | 1014.1 |
| 20260505120503 | 12 | 287 | 1.6 | 8.0 | 0.00 | 0.36 | 0.20 | 88 | 1014.0 |
| 20260505120220 | 12 | 273 | 1.6 | 8.0 | 0.00 | 0.36 | 0.20 | 88 | 1014.0 |
| 20260505115716 | 12 | 284 | 1.6 | 6.4 | 0.00 | 0.36 | 0.20 | 88 | 1014.1 |